STARLINK-1189 (45221 NORAD) Tracking and Keplerian Element Data

This shows tracking and keplerian element data for the satellite.

Feedback or suggestion? Click here.




ElementValue
Catalog45221
NameSTARLINK-1189
Epoch Orbit751
Epoch Day94.25001157
Epoch Year2020
RAAN42.8772
Inclination52.9997
Eccentricity0.0001381
Argument of Perigee61.8227
Mean Anonmoly57.2638
Mean Motion15.62745433
Decay Rate0.00035342
L11 45221U 20012AV 20094.25001157 .00035342 00000-0 39023-3 0 9992
L22 45221 52.9997 42.8772 0001381 61.8227 57.2638 15.62745433 7510

Live tracking and technical data element details for STARLINK-1189 (NORAD 45221). STARLINK-1189 can be tracked NOW for your location showing map with azimuth and elevation plus other details from your city location.

Track the satellite on the map from your city or location and see movement details for azimuth, elevation, latitude, longitude, range, height, and movement on the map or in text.







IsCatalogInMostPopularTable: catalog: 45221, numindb: 5
Update: records affected: 1



GetName: 45221 STARLINK-1189

Hit Count: updated at: Mon, 06 Apr 2020 11:37:36 GMT